Regional Weather Roundup
Issued by NWS

Home | Current Version | Previous Version | Text Only | Print | Product List | Glossary Off
Versions: 1 2 3 4 5 6 7 8 9 10 11 12 13 14 15 16 17 18 19 20 21 22 23 24 25 26 27 28 29 30 31 32 33 34 35 36 37 38 39 40 41 42 43 44 45 46 47 48 49 50

753
ASUS43 KBIS 262210
RWRND

NORTH DAKOTA REGIONAL WEATHER ROUNDUP
NATIONAL WEATHER SERVICE BISMARCK ND
500 PM CDT MON SEP 26 2016

NOTE: "FAIR" INDICATES FEW OR NO CLOUDS BELOW 12,000 FEET WITH NO
SIGNIFICANT WEATHER AND/OR OBSTRUCTIONS TO VISIBILITY.


NDZ001>003-009>011-017-262300-
NORTHWEST NORTH DAKOTA

CITY           SKY/WX    TMP DP  RH WIND       PRES   REMARKS
WILLISTON      SUNNY     70  35  27 NW15      30.14F
MINOT          SUNNY     67  33  28 W21G29    30.08F
MINOT AFB      SUNNY     66  33  30 NW18G26   30.07F
$$

NDZ018>021-031>035-040>046-262300-
SOUTHWEST NORTH DAKOTA

CITY           SKY/WX    TMP DP  RH WIND       PRES   REMARKS
BISMARCK       SUNNY     69  35  28 NW18G25   30.11F
DICKINSON      SUNNY     65  33  30 NW18      30.15F
GARRISON         N/A     67  35  30 NW20G30   30.10F
HETTINGER ARPT SUNNY     68  38  33 NW17      30.18S
$$

NDZ004>008-012>016-024-026-027-054-262300-
NORTHEAST NORTH DAKOTA

CITY           SKY/WX    TMP DP  RH WIND       PRES   REMARKS
GRAND FORKS    MOSUNNY   64  41  42 NW24G35   29.92R
GRND FRKS AFB  SUNNY     64  38  38 N20G30    29.93R
DEVILS LAKE    SUNNY     64  29  26 NW24G31   29.99S
$$

NDZ022-023-025-028>030-036>039-047>053-262300-
SOUTHEAST NORTH DAKOTA

CITY           SKY/WX    TMP DP  RH WIND       PRES   REMARKS
FARGO          SUNNY     67  31  26 NW29G36   29.93S
JAMESTOWN      SUNNY     64  33  31 NW24G37   30.02S
$$





USA.gov is the U.S. government's official web portal to all federal, state and local government web resources and services.